EW0152 Weather Reports


time (UTC)temp
C
wind
direction
speed
KPH
gust
KPH
rain 1hr
cm
rain 24hr
cm
rain mn
cm
humidity
%
barometer
mb
20260507191558 18 311 3.2 9.7 0.00 0.30 0.28 34 1009.7
20260507191057 18 198 1.6 16.1 0.00 0.30 0.28 32 1009.8
20260507190558 18 329 3.2 16.1 0.00 0.30 0.28 35 1009.8
20260507190107 18 346 1.6 14.5 0.00 0.30 0.28 34 1009.8
20260507185557 18 234 4.8 14.5 0.00 0.30 0.28 33 1009.8
20260507185058 18 238 4.8 9.7 0.00 0.30 0.28 34 1009.9
20260507184558 18 310 1.6 11.3 0.00 0.30 0.28 35 1009.9
20260507184057 18 306 4.8 11.3 0.00 0.30 0.28 36 1010.0
20260507183558 18 211 3.2 11.3 0.00 0.30 0.28 36 1010.0
20260507183116 18 263 3.2 9.7 0.00 0.30 0.28 37 1010.4
20260507182557 17 305 3.2 14.5 0.00 0.30 0.28 36 1010.1
20260507182058 17 263 3.2 14.5 0.00 0.30 0.28 37 1010.1
20260507181600 17 232 3.2 14.5 0.00 0.30 0.28 38 1010.2
20260507181101 17 350 3.2 8.0 0.00 0.30 0.28 41 1010.3
20260507180558 17 273 3.2 8.0 0.00 0.30 0.28 38 1010.4
20260507180059 17 218 1.6 11.3 0.00 0.30 0.28 39 1010.4
20260507175558 17 300 3.2 12.9 0.00 0.30 0.28 39 1010.5
20260507175057 17 217 6.4 12.9 0.00 0.30 0.28 38 1010.4
20260507174603 17 0 3.2 8.0 0.00 0.30 0.28 37 1010.3
20260507174057 17 0 3.2 11.3 0.00 0.30 0.28 37 1010.3
20260507173557 17 236 0.0 16.1 0.00 0.30 0.28 39 1010.4
20260507173105 17 215 4.8 19.3 0.00 0.30 0.28 41 1010.5
20260507172557 17 251 4.8 19.3 0.00 0.30 0.28 39 1010.4
20260507172058 17 303 4.8 14.5 0.00 0.30 0.28 42 1010.6
20260507171557 17 224 3.2 16.1 0.00 0.30 0.28 43 1010.6
20260507171056 17 291 1.6 16.1 0.00 0.30 0.28 47 1010.6
20260507170556 17 241 4.8 16.1 0.00 0.30 0.28 43 1010.5
20260507170058 17 204 1.6 16.1 0.00 0.30 0.28 46 1010.3
20260507165557 16 217 4.8 14.5 0.00 0.30 0.28 43 1010.7
20260507165100 16 166 4.8 14.5 0.00 0.30 0.28 46 1010.6
20260507164630 16 259 3.2 11.3 0.00 0.30 0.28 48 1010.9
20260507164057 16 284 1.6 12.9 0.00 0.30 0.28 50 1010.9
20260507163557 16 262 3.2 12.9 0.00 0.30 0.28 52 1011.0
20260507163059 15 237 3.2 16.1 0.00 0.30 0.28 50 1010.9
20260507162558 15 276 1.6 16.1 0.00 0.30 0.28 55 1011.0
20260507162056 15 231 1.6 16.1 0.00 0.30 0.28 56 1011.1
20260507161604 15 190 1.6 4.8 0.00 0.30 0.28 56 1011.2
20260507161058 15 202 0.0 14.5 0.00 0.30 0.28 56 1011.2
20260507160557 15 0 1.6 14.5 0.00 0.30 0.28 53 1011.2
20260507160058 15 313 3.2 14.5 0.00 0.30 0.28 54 1011.3
20260507155558 15 217 1.6 12.9 0.00 0.30 0.28 55 1011.3
20260507155056 15 342 3.2 12.9 0.00 0.30 0.28 58 1011.3
20260507154558 15 19 1.6 9.7 0.00 0.30 0.28 57 1011.4
20260507154056 15 236 0.0 9.7 0.00 0.30 0.28 57 1011.4
20260507153557 15 236 1.6 9.7 0.00 0.30 0.28 58 1011.5
20260507153058 15 248 0.0 6.4 0.00 0.30 0.28 56 1011.6
20260507152559 15 192 1.6 6.4 0.00 0.30 0.28 60 1011.5
20260507152059 15 0 0.0 6.4 0.00 0.30 0.28 60 1011.5
20260507151601 15 0 1.6 6.4 0.00 0.30 0.28 58 1011.6
20260507151057 15 0 0.0 3.2 0.00 0.30 0.28 62 1011.6
20260507150557 14 0 0.0 12.9 0.00 0.30 0.28 62 1011.7
20260507150056 14 0 1.6 12.9 0.00 0.30 0.28 63 1011.7
20260507145557 14 233 3.2 12.9 0.00 0.30 0.28 61 1011.8
20260507145059 13 0 0.0 4.8 0.00 0.30 0.28 62 1011.8
20260507144601 13 0 0.0 4.8 0.00 0.30 0.28 62 1011.8
20260507144057 13 264 0.0 4.8 0.00 0.30 0.28 63 1011.9
20260507143556 13 259 0.0 9.7 0.00 0.30 0.28 64 1011.9
20260507143109 13 261 0.0 9.7 0.00 0.30 0.28 63 1011.9
20260507142556 13 267 1.6 6.4 0.00 0.30 0.28 63 1012.0
20260507142056 13 352 0.0 4.8 0.00 0.30 0.28 62 1012.0
20260507141558 13 0 0.0 6.4 0.00 0.30 0.28 65 1012.0
20260507141056 13 0 1.6 6.4 0.00 0.30 0.28 66 1011.9
20260507140557 12 0 1.6 4.8 0.00 0.30 0.28 68 1012.0
20260507140057 12 0 0.0 9.7 0.00 0.30 0.28 72 1012.1
20260507135556 12 263 1.6 9.7 0.00 0.30 0.28 71 1012.1
20260507135057 12 219 1.6 6.4 0.00 0.30 0.28 73 1012.0
20260507134558 12 0 0.0 4.8 0.00 0.30 0.28 75 1012.1
20260507134057 12 0 0.0 6.4 0.00 0.30 0.28 77 1012.0
20260507133557 12 207 0.0 6.4 0.00 0.30 0.28 79 1012.1
20260507133056 11 192 1.6 6.4 0.00 0.30 0.28 80 1012.0
20260507132556 11 0 1.6 8.0 0.00 0.30 0.28 80 1011.9
20260507132058 11 281 1.6 8.0 0.00 0.30 0.28 83 1011.9
20260507131607 11 0 0.0 9.7 0.00 0.30 0.28 85 1012.0
20260507131101 11 0 1.6 9.7 0.00 0.30 0.28 86 1012.1
20260507130556 11 271 1.6 6.4 0.00 0.30 0.28 87 1012.1
20260507130057 10 0 0.0 9.7 0.00 0.30 0.28 87 1012.1
20260507125556 10 257 1.6 9.7 0.00 0.30 0.28 87 1012.2
20260507125057 10 281 1.6 9.7 0.00 0.30 0.28 89 1012.2
20260507124604 10 242 0.0 6.4 0.00 0.30 0.28 90 1012.1
20260507124056 10 259 0.0 3.2 0.00 0.30 0.28 91 1012.3
20260507123556 10 0 0.0 3.2 0.00 0.30 0.28 91 1012.4
20260507123100 10 309 0.0 3.2 0.00 0.30 0.28 91 1012.5
20260507122555 10 0 0.0 4.8 0.00 0.30 0.28 91 1012.5
20260507122057 10 311 1.6 4.8 0.00 0.30 0.28 91 1012.5
20260507121557 10 0 0.0 0.0 0.00 0.30 0.28 91 1012.3
20260507121057 10 0 0.0 1.6 0.00 0.30 0.28 91 1012.2
20260507120556 9 0 0.0 1.6 0.00 0.30 0.28 92 1012.2
20260507120059 9 0 0.0 0.0 0.00 0.30 0.28 91 1012.3
20260507115557 9 0 0.0 0.0 0.03 0.30 0.28 91 1012.1
20260507115059 9 0 0.0 3.2 0.03 0.30 0.28 91 1012.1
20260507114608 9 0 0.0 3.2 0.03 0.30 0.28 91 1012.2
20260507114056 9 0 0.0 3.2 0.03 0.30 0.28 91 1012.3
20260507113559 9 0 0.0 3.2 0.03 0.30 0.28 91 1012.1
20260507113130 9 0 0.0 1.6 0.03 0.30 0.28 91 1012.3
20260507112556 9 0 0.0 0.0 0.03 0.30 0.28 91 1012.0
20260507112056 9 0 0.0 0.0 0.05 0.30 0.28 91 1012.0
20260507111607 9 0 0.0 0.0 0.05 0.30 0.28 91 1011.9
20260507111056 9 0 0.0 0.0 0.05 0.30 0.28 91 1011.9
20260507110556 9 0 0.0 0.0 0.05 0.30 0.28 91 1011.9
20260507110105 9 0 0.0 0.0 0.05 0.30 0.28 90 1011.8
20260507105557 9 0 0.0 0.0 0.03 0.28 0.25 91 1011.9
20260507105057 9 0 0.0 0.0 0.03 0.28 0.25 90 1011.9
20260507104600 9 0 0.0 0.0 0.05 0.28 0.25 90 1011.7
20260507104056 9 0 0.0 0.0 0.05 0.28 0.25 90 1012.0
20260507103557 9 0 0.0 0.0 0.05 0.28 0.25 90 1012.0
20260507103058 9 0 0.0 0.0 0.05 0.28 0.25 90 1012.3
20260507102556 9 0 0.0 0.0 0.05 0.28 0.25 90 1012.5
20260507102059 9 0 0.0 0.0 0.03 0.25 0.23 90 1012.1
20260507101556 9 0 0.0 0.0 0.05 0.25 0.23 90 1012.0
20260507101058 9 0 0.0 0.0 0.05 0.25 0.23 90 1011.9
20260507100601 9 0 0.0 0.0 0.05 0.25 0.23 89 1012.0
20260507100115 9 0 0.0 1.6 0.08 0.25 0.23 90 1012.0
20260507095558 9 0 0.0 1.6 0.08 0.25 0.23 90 1012.0
20260507095058 9 0 0.0 0.0 0.10 0.25 0.23 89 1011.6
20260507094606 9 0 0.0 0.0 0.08 0.23 0.20 89 1011.6
20260507094058 10 0 0.0 0.0 0.10 0.23 0.20 89 1011.7
20260507093559 10 0 0.0 0.0 0.10 0.23 0.20 89 1011.7
20260507093100 10 0 0.0 0.0 0.13 0.23 0.20 89 1011.7
20260507092558 10 0 0.0 3.2 0.13 0.23 0.20 89 1011.7
20260507092058 10 0 0.0 3.2 0.13 0.23 0.20 89 1011.6
20260507091625 10 0 0.0 3.2 0.13 0.20 0.18 88 1011.4
20260507091101 10 0 0.0 4.8 0.13 0.20 0.18 88 1011.2
20260507090559 10 0 0.0 4.8 0.13 0.20 0.18 88 1011.3
20260507090058 10 0 0.0 4.8 0.10 0.18 0.15 88 1011.5
20260507085559 10 0 0.0 6.4 0.13 0.18 0.15 88 1011.4
20260507085058 10 0 0.0 6.4 0.10 0.15 0.13 87 1011.5
20260507084610 11 271 0.0 4.8 0.10 0.15 0.13 87 1011.6
20260507084059 11 0 0.0 3.2 0.08 0.13 0.10 88 1011.5
20260507083558 11 0 0.0 3.2 0.08 0.13 0.10 87 1011.6
20260507083057 11 0 0.0 3.2 0.05 0.10 0.08 87 1011.3
20260507082558 11 0 0.0 1.6 0.05 0.10 0.08 86 1011.3
20260507082058 11 0 0.0 3.2 0.05 0.10 0.08 86 1011.1
20260507081601 11 0 0.0 6.4 0.03 0.08 0.05 86 1011.2
20260507081058 12 286 0.0 6.4 0.03 0.08 0.05 86 1011.6
20260507080559 12 0 0.0 4.8 0.03 0.08 0.05 86 1011.5
20260507080059 12 0 0.0 3.2 0.03 0.08 0.05 85 1011.3
20260507075558 12 0 0.0 4.8 0.00 0.05 0.03 85 1011.2
20260507075058 12 0 0.0 6.4 0.00 0.05 0.03 84 1011.1
20260507074603 12 0 0.0 6.4 0.00 0.05 0.03 84 1011.4
20260507074101 12 0 1.6 4.8 0.00 0.05 0.03 84 1011.4
20260507073602 13 0 0.0 3.2 0.00 0.05 0.03 83 1011.0
20260507073102 13 0 0.0 6.4 0.00 0.05 0.03 82 1010.6
20260507072558 13 0 0.0 6.4 0.00 0.05 0.03 82 1010.2
20260507072057 13 9 0.0 3.2 0.00 0.05 0.03 83 1010.3
20260507071601 13 0 0.0 4.8 0.00 0.05 0.03 82 1010.2
20260507071058 13 0 0.0 6.4 0.03 0.05 0.03 83 1010.0
20260507070601 13 0 0.0 6.4 0.03 0.05 0.03 82 1010.2
20260507070105 13 238 1.6 6.4 0.03 0.05 0.03 83 1010.2
20260507065601 13 0 0.0 4.8 0.03 0.05 0.03 83 1010.1
20260507065057 13 0 0.0 4.8 0.03 0.05 0.03 83 1010.1
20260507064557 13 293 0.0 8.0 0.03 0.05 0.03 83 1010.3
20260507064058 13 0 0.0 8.0 0.03 0.05 0.03 83 1010.4
20260507063557 13 236 0.0 8.0 0.03 0.05 0.03 83 1010.5
20260507063058 13 0 0.0 3.2 0.03 0.05 0.03 83 1010.4
20260507062558 13 0 0.0 3.2 0.03 0.05 0.03 85 1010.3
20260507062058 13 0 0.0 0.0 0.03 0.05 0.03 85 1010.0
20260507061558 13 0 0.0 0.0 0.03 0.05 0.03 85 1010.1
20260507061059 13 0 0.0 8.0 0.00 0.03 0.00 85 1010.0
20260507060602 13 0 0.0 8.0 0.00 0.03 0.00 85 1010.3
20260507060101 14 0 0.0 8.0 0.00 0.03 0.00 85 1010.4
20260507055558 14 0 0.0 6.4 0.00 0.03 0.00 86 1010.4
20260507055059 14 237 0.0 6.4 0.00 0.03 0.00 87 1010.4
20260507054559 14 0 0.0 4.8 0.00 0.03 0.00 88 1010.4
20260507054101 14 0 0.0 4.8 0.00 0.03 0.00 88 1010.5
20260507053559 15 0 0.0 3.2 0.00 0.03 0.00 90 1010.7
20260507053058 15 0 0.0 8.0 0.00 0.03 0.00 90 1010.6
20260507052559 15 0 0.0 8.0 0.00 0.03 0.00 90 1010.8
20260507052057 15 229 0.0 3.2 0.00 0.03 0.00 90 1010.6
20260507051559 15 0 0.0 3.2 0.00 0.03 0.00 90 1010.5
20260507051058 15 0 0.0 4.8 0.00 0.03 0.00 90 1010.4
20260507050601 15 0 0.0 4.8 0.00 0.03 0.00 90 1010.4
20260507050057 15 0 0.0 4.8 0.00 0.03 0.00 90 1010.4
20260507045557 15 0 0.0 6.4 0.00 0.03 0.00 90 1010.5
20260507045056 15 0 0.0 6.4 0.00 0.03 0.00 90 1010.5
20260507044609 15 240 0.0 3.2 0.00 0.03 0.00 90 1010.6
20260507044058 15 0 0.0 4.8 0.00 0.03 0.00 90 1010.5
20260507043558 15 0 0.0 4.8 0.00 0.03 0.00 90 1010.6
20260507043114 15 0 0.0 3.2 0.00 0.03 0.00 90 1010.2
20260507042559 15 240 0.0 4.8 0.00 0.03 0.00 90 1010.3
20260507042057 15 0 0.0 4.8 0.00 0.03 0.00 90 1010.2
20260507041559 15 241 0.0 3.2 0.00 0.03 0.00 90 1010.5
20260507041058 15 0 0.0 6.4 0.00 0.03 0.00 90 1010.4
20260507040558 15 0 0.0 11.3 0.00 0.03 0.00 89 1010.4
20260507040058 15 0 0.0 12.9 0.00 0.03 0.00 89 1010.5
20260507035557 15 240 1.6 12.9 0.00 0.03 0.03 89 1010.6
20260507035057 15 240 1.6 8.0 0.00 0.03 0.03 89 1010.7
20260507034559 15 245 1.6 11.3 0.00 0.03 0.03 89 1010.6
20260507034057 15 0 3.2 11.3 0.00 0.03 0.03 89 1010.6
20260507033559 15 246 3.2 9.7 0.00 0.03 0.03 89 1010.6
20260507033058 14 236 3.2 9.7 0.00 0.03 0.03 89 1010.4
20260507032559 14 212 1.6 12.9 0.00 0.03 0.03 89 1010.3
20260507032058 14 211 3.2 14.5 0.00 0.03 0.03 89 1010.3
20260507031555 14 189 1.6 16.1 0.00 0.03 0.03 89 1010.2
20260507031058 14 0 3.2 16.1 0.00 0.03 0.03 89 1010.1
20260507030557 14 221 3.2 11.3 0.00 0.03 0.03 89 1010.1
20260507030058 14 213 1.6 12.9 0.00 0.03 0.03 89 1010.1
20260507025557 14 211 3.2 12.9 0.00 0.03 0.03 89 1010.1
20260507025059 14 205 1.6 12.9 0.00 0.03 0.03 89 1010.0
20260507024557 14 243 3.2 11.3 0.00 0.03 0.03 89 1010.1
20260507024058 14 143 3.2 11.3 0.00 0.03 0.03 89 1010.0
20260507023559 14 152 1.6 8.0 0.00 0.03 0.03 89 1010.1
20260507023109 14 0 3.2 14.5 0.00 0.03 0.03 89 1010.1
20260507022559 14 192 3.2 14.5 0.00 0.03 0.03 89 1010.0
20260507022058 14 236 3.2 11.3 0.00 0.03 0.03 89 1010.0
20260507021557 14 177 6.4 11.3 0.00 0.03 0.03 89 1010.0
20260507021057 14 0 3.2 11.3 0.00 0.03 0.03 89 1010.1
20260507020558 14 239 1.6 11.3 0.00 0.03 0.03 89 1010.1
20260507020100 14 146 3.2 11.3 0.00 0.03 0.03 89 1010.2
20260507015557 14 296 3.2 11.3 0.00 0.03 0.03 89 1010.0
20260507015057 14 153 1.6 12.9 0.00 0.03 0.03 90 1010.2
20260507014557 14 236 3.2 12.9 0.00 0.03 0.03 90 1010.1
20260507014057 14 234 3.2 11.3 0.00 0.03 0.03 90 1010.3
20260507013600 14 0 6.4 11.3 0.00 0.03 0.03 90 1010.3
20260507013057 13 170 3.2 9.7 0.00 0.03 0.03 90 1010.4
20260507012558 13 169 3.2 9.7 0.00 0.03 0.03 90 1010.5
20260507012058 13 232 4.8 9.7 0.00 0.03 0.03 90 1010.6
20260507011601 13 167 4.8 11.3 0.00 0.03 0.03 90 1010.6
20260507011057 13 225 3.2 11.3 0.00 0.03 0.03 89 1010.8
20260507010558 13 154 3.2 16.1 0.00 0.03 0.03 90 1010.7
20260507010058 13 165 4.8 16.1 0.00 0.03 0.03 89 1010.6
20260507005559 13 153 6.4 12.9 0.00 0.03 0.03 89 1010.7
20260507005101 13 163 4.8 14.5 0.00 0.03 0.03 89 1010.7
20260507004557 13 186 6.4 14.5 0.00 0.03 0.03 89 1010.7
20260507004057 13 185 4.8 14.5 0.00 0.03 0.03 89 1010.7
20260507003558 13 160 4.8 19.3 0.00 0.03 0.03 89 1010.6
20260507003116 13 173 4.8 19.3 0.00 0.03 0.03 89 1010.6
20260507002557 13 179 6.4 19.3 0.00 0.03 0.03 89 1010.6
20260507002058 13 167 4.8 16.1 0.00 0.03 0.03 89 1010.5
20260507001615 13 173 6.4 16.1 0.00 0.03 0.03 89 1010.6
20260507001057 13 212 6.4 17.7 0.00 0.03 0.03 89 1010.3
20260507000601 13 181 6.4 17.7 0.00 0.03 0.03 89 1010.4
20260507000058 13 171 3.2 12.9 0.00 0.03 0.03 89 1010.4
20260506235559 13 150 3.2 14.5 0.00 0.03 0.03 89 1010.4
20260506235059 13 155 4.8 17.7 0.00 0.03 0.03 89 1010.3
20260506234558 13 167 6.4 17.7 0.00 0.03 0.03 88 1010.2
20260506234058 13 231 6.4 17.7 0.00 0.03 0.03 89 1010.3
20260506233602 13 156 6.4 19.3 0.00 0.03 0.03 88 1010.3
20260506233058 13 162 9.7 19.3 0.00 0.03 0.03 88 1010.2
20260506232557 13 173 4.8 17.7 0.00 0.03 0.03 88 1010.3
20260506232057 14 169 6.4 12.9 0.00 0.03 0.03 88 1010.3
20260506231606 14 175 6.4 17.7 0.00 0.03 0.03 88 1010.3
20260506231057 14 151 8.0 17.7 0.00 0.03 0.03 88 1010.6
20260506230557 14 167 4.8 17.7 0.00 0.03 0.03 88 1010.6
20260506230113 14 144 6.4 16.1 0.00 0.03 0.03 88 1010.6
20260506225558 14 175 3.2 12.9 0.00 0.03 0.03 88 1010.6
20260506225057 14 162 6.4 12.9 0.00 0.03 0.03 88 1010.6
20260506224558 14 184 4.8 14.5 0.00 0.03 0.03 88 1010.4
20260506224100 14 164 3.2 14.5 0.00 0.03 0.03 88 1010.4
20260506223600 14 151 4.8 14.5 0.00 0.03 0.03 88 1010.6
20260506223103 14 163 1.6 17.7 0.00 0.03 0.03 88 1010.7
20260506222600 14 172 6.4 17.7 0.00 0.03 0.03 88 1010.8
20260506222101 14 153 1.6 19.3 0.03 0.03 0.03 88 1010.9
20260506221614 15 198 6.4 19.3 0.03 0.03 0.03 88 1010.8
20260506221058 15 167 6.4 19.3 0.03 0.03 0.03 87 1010.9
20260506220600 15 161 6.4 16.1 0.03 0.03 0.03 87 1010.9
20260506220056 15 171 3.2 16.1 0.03 0.03 0.03 87 1010.9
20260506215602 15 249 3.2 19.3 0.03 0.03 0.03 87 1010.9
20260506215100 15 153 3.2 19.3 0.03 0.03 0.03 87 1011.0
20260506214559 15 169 3.2 20.9 0.03 0.03 0.03 87 1011.1
20260506214057 15 166 8.0 20.9 0.03 0.03 0.03 87 1011.1
20260506213556 15 201 1.6 11.3 0.03 0.03 0.03 87 1011.1
20260506213103 15 175 4.8 19.3 0.03 0.03 0.03 86 1011.1
20260506212557 15 166 8.0 19.3 0.03 0.03 0.03 86 1011.2
20260506212100 15 225 6.4 19.3 0.00 0.00 0.00 86 1011.1
20260506211557 15 159 6.4 12.9 0.00 0.00 0.00 86 1011.2
20260506211058 15 153 3.2 14.5 0.00 0.00 0.00 86 1011.2
20260506210558 15 181 6.4 14.5 0.00 0.00 0.00 85 1011.1
20260506210059 15 162 3.2 11.3 0.00 0.00 0.00 85 1011.2
20260506205600 16 166 4.8 11.3 0.00 0.00 0.00 84 1011.3
20260506205058 16 171 4.8 12.9 0.00 0.00 0.00 83 1011.3
20260506204558 16 181 4.8 19.3 0.00 0.00 0.00 83 1011.4
20260506204058 16 167 6.4 19.3 0.00 0.00 0.00 81 1011.4
20260506203557 16 161 6.4 14.5 0.00 0.00 0.00 80 1011.4
20260506203119 16 152 4.8 19.3 0.00 0.00 0.00 80 1011.2
20260506202557 16 155 4.8 19.3 0.00 0.00 0.00 80 1011.3
20260506202057 16 163 4.8 17.7 0.00 0.00 0.00 79 1011.4
20260506201556 17 177 8.0 19.3 0.00 0.00 0.00 77 1011.3
20260506201057 17 154 8.0 22.5 0.00 0.00 0.00 76 1011.3
20260506200601 17 163 4.8 24.1 0.00 0.00 0.00 75 1011.3
20260506200058 17 179 9.7 24.1 0.00 0.00 0.00 75 1011.3
20260506195557 17 182 6.4 16.1 0.00 0.00 0.00 74 1011.3
20260506195058 17 178 6.4 14.5 0.00 0.00 0.00 73 1011.5
20260506194600 17 146 4.8 14.5 0.00 0.00 0.00 73 1011.6
20260506194057 17 173 6.4 16.1 0.00 0.00 0.00 72 1011.5
20260506193557 17 157 6.4 16.1 0.00 0.00 0.00 71 1011.7
20260506193106 18 159 6.4 17.7 0.00 0.00 0.00 70 1011.7
20260506192557 18 185 6.4 17.7 0.00 0.00 0.00 69 1011.7
20260506192057 18 200 4.8 22.5 0.00 0.00 0.00 68 1011.7